Погода в Кагане

Узбекистан     39°43′24″N   64°32′49″E
темп.,
°C
ветер,
м/с
пор.,
м/с
влажн.,
%
обл.,
%
осадки,
мм/ч
давл.,
гПа
погр.,
м
3 марта, ср
ср323:00+10ссв584348 0.0 1024263
02:00+8с475366 0.0 1023212
05:00+6с586247 0.0 1023195
08:00+5с466422 0.0 1024181
11:00+10ссз224311 0.0 1023353
14:00+14зсз23320 0.0 10211107
17:00+15сз32310 0.0 10201321
20:00+12с35370 0.0 1020275
4 марта, чт
чт423:00+10св35420 0.0 1019133
02:00+10всв34470 0.0 101850
05:00+9юв34461 0.0 101753
08:00+10юв5846100 0.0 1017151
11:00+14ю6105186 1.4 1017752
14:00+19юз810380 0.1 10161860
17:00+16зсз10123548 0.4 10191368
20:00+11ссз8115389 0.0 10241099
5 марта, пт
пт523:00+9с676394 0.1 1027853
02:00+7ссв466028 0.0 1029470
05:00+5ссв466614 0.0 1030242
08:00+5ссв58580 0.0 1030239
11:00+10всв45470 0.0 1028742
14:00+13в44270 0.0 10241027
17:00+14всв33240 0.0 10201012
20:00+13св463067 0.0 1018241
6 марта, сб
сб623:00+12в585183 0.0 1016233
02:00+12св4651100 0.0 1013147
05:00+11св3449100 0.0 1010120
08:00+8с6960100 1.1 1009237
11:00+8ссв6962100 1.7 1010325
14:00+11в5874100 0.6 1010557
17:00+10ссз5687100 2.8 1012227
20:00+4сз101482100 3.1 1016700
7 марта, вс
вс723:00+5з6886100 4.3 1019450
02:00+3з6888100 0.4 1019314
05:00+4з4669100 0.5 1020539
08:00+4ююз3461100 0.0 1021405
11:00+7ююз454085 0.0 1021879
14:00+11ююз45290 0.0 10181157
17:00+12ююв45290 0.0 10161263
20:00+11юв46350 0.0 1016369